Time,TemperatureF,DewpointF,PressureIn,WindDirection,WindDirectionDegrees,WindSpeedMPH,WindSpeedGustMPH,Humidity,HourlyPrecipIn,Conditions,Clouds,dailyrainin,SoftwareType,DateUTC
2013-03-21 00:00:00,40.5,23.3,29.77,SSW,210,0.0,1.0,50,0.00,,---,0.00,VWS V14.00,2013-03-21 06:00:00,
2013-03-21 00:06:00,40.2,23.1,29.75,SSW,209,0.0,1.0,50,0.00,,---,0.00,VWS V14.00,2013-03-21 06:06:00,
2013-03-21 00:12:00,40.0,23.4,29.75,North,0,0.0,0.0,51,0.00,,---,0.00,VWS V14.00,2013-03-21 06:12:00,
2013-03-21 00:18:00,39.7,23.1,29.75,SSW,209,0.0,0.0,51,0.00,,---,0.00,VWS V14.00,2013-03-21 06:18:00,
2013-03-21 00:23:00,39.5,22.9,29.75,SSW,209,0.0,0.0,51,0.00,,---,0.00,VWS V14.00,2013-03-21 06:23:00,
2013-03-21 00:28:00,39.3,22.7,29.75,SSW,209,0.0,0.0,51,0.00,,---,0.00,VWS V14.00,2013-03-21 06:28:00,
2013-03-21 00:33:00,39.2,23.1,29.75,SSW,209,0.0,0.0,52,0.00,,---,0.00,VWS V14.00,2013-03-21 06:33:00,
2013-03-21 00:38:00,38.8,23.1,29.75,SSW,209,0.0,0.0,53,0.00,,---,0.00,VWS V14.00,2013-03-21 06:38:00,
2013-03-21 00:43:00,38.6,23.4,29.75,SSW,209,0.0,0.0,54,0.00,,---,0.00,VWS V14.00,2013-03-21 06:43:00,
2013-03-21 00:48:00,38.3,23.1,29.75,SSW,209,0.0,0.0,54,0.00,,---,0.00,VWS V14.00,2013-03-21 06:48:00,
2013-03-21 00:53:00,38.2,23.5,29.75,SSW,209,0.0,0.0,55,0.00,,---,0.00,VWS V14.00,2013-03-21 06:53:00,
2013-03-21 00:58:00,38.1,22.9,29.76,SSW,209,0.0,0.0,54,0.00,,---,0.00,VWS V14.00,2013-03-21 06:58:00,
2013-03-21 01:03:00,38.0,23.3,29.76,SSW,209,0.0,0.0,55,0.00,,---,0.00,VWS V14.00,2013-03-21 07:03:00,
2013-03-21 01:08:00,37.8,23.1,29.75,SSW,209,0.0,0.0,55,0.00,,---,0.00,VWS V14.00,2013-03-21 07:08:00,
2013-03-21 01:13:00,37.7,23.4,29.75,SSW,209,0.0,0.0,56,0.00,,---,0.00,VWS V14.00,2013-03-21 07:13:00,
2013-03-21 01:18:00,37.5,23.2,29.74,SSW,209,0.0,0.0,56,0.00,,---,0.00,VWS V14.00,2013-03-21 07:18:00,
2013-03-21 01:23:00,37.4,23.1,29.75,SSW,209,0.0,0.0,56,0.00,,---,0.00,VWS V14.00,2013-03-21 07:23:00,
2013-03-21 01:28:00,37.2,23.0,29.74,SSW,209,0.0,0.0,56,0.00,,---,0.00,VWS V14.00,2013-03-21 07:28:00,
2013-03-21 01:33:00,37.1,22.9,29.74,SSW,209,0.0,0.0,56,0.00,,---,0.00,VWS V14.00,2013-03-21 07:33:00,
2013-03-21 01:38:00,36.9,23.1,29.74,SSW,209,0.0,0.0,57,0.00,,---,0.00,VWS V14.00,2013-03-21 07:38:00,
2013-03-21 01:43:00,36.7,23.3,29.74,SSW,209,0.0,0.0,58,0.00,,---,0.00,VWS V14.00,2013-03-21 07:43:00,
2013-03-21 01:48:00,36.5,23.1,29.74,SSW,209,0.0,0.0,58,0.00,,---,0.00,VWS V14.00,2013-03-21 07:48:00,
2013-03-21 01:53:00,36.4,23.0,29.75,SSW,209,0.0,0.0,58,0.00,,---,0.00,VWS V14.00,2013-03-21 07:53:00,
2013-03-21 01:58:00,36.3,23.0,29.75,SSW,209,0.0,0.0,58,0.00,,---,0.00,VWS V14.00,2013-03-21 07:58:00,
2013-03-21 02:03:00,36.2,22.9,29.74,SSW,209,0.0,0.0,58,0.00,,---,0.00,VWS V14.00,2013-03-21 08:03:00,
2013-03-21 02:08:00,36.1,22.8,29.73,SSW,209,0.0,1.0,58,0.00,,---,0.00,VWS V14.00,2013-03-21 08:08:00,
2013-03-21 02:14:00,36.0,23.1,29.73,SSW,209,0.0,0.0,59,0.00,,---,0.00,VWS V14.00,2013-03-21 08:14:00,
2013-03-21 02:19:00,35.9,23.0,29.73,SSW,209,0.0,2.0,59,0.00,,---,0.00,VWS V14.00,2013-03-21 08:19:00,
2013-03-21 02:24:00,35.8,22.9,29.73,SSW,209,0.0,0.0,59,0.00,,---,0.00,VWS V14.00,2013-03-21 08:24:00,
2013-03-21 02:29:00,35.7,22.8,29.73,SSW,209,0.0,0.0,59,0.00,,---,0.00,VWS V14.00,2013-03-21 08:29:00,
2013-03-21 02:34:00,35.7,22.8,29.73,SSW,209,0.0,1.0,59,0.00,,---,0.00,VWS V14.00,2013-03-21 08:34:00,
2013-03-21 02:40:00,35.7,22.8,29.73,SSW,209,0.0,1.0,59,0.00,,---,0.00,VWS V14.00,2013-03-21 08:40:00,
2013-03-21 02:45:00,35.9,23.0,29.73,SSW,209,1.0,3.0,59,0.00,,---,0.00,VWS V14.00,2013-03-21 08:45:00,
2013-03-21 02:50:00,35.9,23.0,29.73,SSW,209,0.0,1.0,59,0.00,,---,0.00,VWS V14.00,2013-03-21 08:50:00,
2013-03-21 02:55:00,35.9,23.0,29.72,SSW,209,0.0,0.0,59,0.00,,---,0.00,VWS V14.00,2013-03-21 08:55:00,
2013-03-21 03:00:00,35.9,23.0,29.72,SSW,209,0.0,0.0,59,0.00,,---,0.00,VWS V14.00,2013-03-21 09:00:00,
2013-03-21 03:06:00,35.9,23.0,29.72,SSW,209,0.0,0.0,59,0.00,,---,0.00,VWS V14.00,2013-03-21 09:06:00,
2013-03-21 03:11:00,35.8,22.9,29.72,SSW,209,0.0,0.0,59,0.00,,---,0.00,VWS V14.00,2013-03-21 09:11:00,
2013-03-21 03:16:00,35.7,22.8,29.71,SSW,209,1.0,1.0,59,0.00,,---,0.00,VWS V14.00,2013-03-21 09:16:00,
2013-03-21 03:21:00,35.6,22.7,29.71,SSW,209,1.0,2.0,59,0.00,,---,0.00,VWS V14.00,2013-03-21 09:21:00,
2013-03-21 03:26:00,35.4,22.5,29.71,SSW,209,0.0,1.0,59,0.00,,---,0.00,VWS V14.00,2013-03-21 09:26:00,
2013-03-21 03:31:00,35.3,22.8,29.72,SSW,209,0.0,0.0,60,0.00,,---,0.00,VWS V14.00,2013-03-21 09:31:00,
2013-03-21 03:36:00,35.2,22.7,29.71,SSW,209,0.0,0.0,60,0.00,,---,0.00,VWS V14.00,2013-03-21 09:36:00,
2013-03-21 03:41:00,35.1,22.6,29.71,SSW,209,2.0,2.0,60,0.00,,---,0.00,VWS V14.00,2013-03-21 09:41:00,
2013-03-21 03:46:00,35.0,22.9,29.71,SSW,209,0.0,3.0,61,0.00,,---,0.00,VWS V14.00,2013-03-21 09:46:00,
2013-03-21 03:51:00,35.0,22.9,29.70,SSW,209,0.0,1.0,61,0.00,,---,0.00,VWS V14.00,2013-03-21 09:51:00,
2013-03-21 03:56:00,34.9,22.8,29.71,SSW,209,0.0,0.0,61,0.00,,---,0.00,VWS V14.00,2013-03-21 09:56:00,
2013-03-21 04:01:00,34.8,22.7,29.71,SSW,209,0.0,0.0,61,0.00,,---,0.00,VWS V14.00,2013-03-21 10:01:00,
2013-03-21 04:06:00,34.9,23.2,29.71,SW,229,0.0,2.0,62,0.00,,---,0.00,VWS V14.00,2013-03-21 10:06:00,
2013-03-21 04:11:00,34.9,23.2,29.70,SSW,195,0.0,2.0,62,0.00,,---,0.00,VWS V14.00,2013-03-21 10:11:00,
2013-03-21 04:16:00,35.0,23.3,29.70,SSW,196,0.0,2.0,62,0.00,,---,0.00,VWS V14.00,2013-03-21 10:16:00,
2013-03-21 04:21:00,35.1,23.0,29.70,South,186,0.0,1.0,61,0.00,,---,0.00,VWS V14.00,2013-03-21 10:21:00,
2013-03-21 04:26:00,35.2,23.1,29.70,South,185,0.0,0.0,61,0.00,,---,0.00,VWS V14.00,2013-03-21 10:26:00,
2013-03-21 04:31:00,35.2,23.1,29.70,South,185,0.0,0.0,61,0.00,,---,0.00,VWS V14.00,2013-03-21 10:31:00,
2013-03-21 04:36:00,35.2,22.7,29.69,South,185,0.0,0.0,60,0.00,,---,0.00,VWS V14.00,2013-03-21 10:36:00,
2013-03-21 04:41:00,35.1,22.6,29.69,South,184,0.0,0.0,60,0.00,,---,0.00,VWS V14.00,2013-03-21 10:41:00,
2013-03-21 04:46:00,34.9,22.4,29.69,South,185,0.0,0.0,60,0.00,,---,0.00,VWS V14.00,2013-03-21 10:46:00,
2013-03-21 04:51:00,34.7,22.2,29.69,South,185,0.0,0.0,60,0.00,,---,0.00,VWS V14.00,2013-03-21 10:51:00,
2013-03-21 04:56:00,34.5,22.1,29.68,South,184,0.0,0.0,60,0.00,,---,0.00,VWS V14.00,2013-03-21 10:56:00,
2013-03-21 05:01:00,34.4,22.0,29.68,South,184,0.0,0.0,60,0.00,,---,0.00,VWS V14.00,2013-03-21 11:01:00,
2013-03-21 05:06:00,34.4,22.0,29.68,South,185,0.0,0.0,60,0.00,,---,0.00,VWS V14.00,2013-03-21 11:06:00,
2013-03-21 05:11:00,34.1,21.7,29.68,South,185,0.0,0.0,60,0.00,,---,0.00,VWS V14.00,2013-03-21 11:11:00,
2013-03-21 05:16:00,33.9,21.9,29.68,South,184,0.0,0.0,61,0.00,,---,0.00,VWS V14.00,2013-03-21 11:16:00,
2013-03-21 05:21:00,33.7,21.7,29.68,South,184,0.0,0.0,61,0.00,,---,0.00,VWS V14.00,2013-03-21 11:21:00,
2013-03-21 05:26:00,33.5,21.5,29.68,South,185,0.0,0.0,61,0.00,,---,0.00,VWS V14.00,2013-03-21 11:26:00,
2013-03-21 05:31:00,33.3,21.3,29.68,South,184,0.0,0.0,61,0.00,,---,0.00,VWS V14.00,2013-03-21 11:31:00,
2013-03-21 05:36:00,33.0,21.4,29.69,South,184,0.0,0.0,62,0.00,,---,0.00,VWS V14.00,2013-03-21 11:36:00,
2013-03-21 05:41:00,32.9,21.7,29.68,South,185,0.0,0.0,63,0.00,,---,0.00,VWS V14.00,2013-03-21 11:41:00,
2013-03-21 05:46:00,32.9,21.7,29.68,South,185,0.0,0.0,63,0.00,,---,0.00,VWS V14.00,2013-03-21 11:46:00,
2013-03-21 05:51:00,32.8,21.6,29.68,South,185,0.0,0.0,63,0.00,,---,0.00,VWS V14.00,2013-03-21 11:51:00,
2013-03-21 05:56:00,32.8,21.6,29.68,South,185,0.0,1.0,63,0.00,,---,0.00,VWS V14.00,2013-03-21 11:56:00,
2013-03-21 06:01:00,32.7,21.9,29.68,South,185,0.0,0.0,64,0.00,,---,0.00,VWS V14.00,2013-03-21 12:01:00,
2013-03-21 06:06:00,32.7,21.9,29.69,South,185,0.0,0.0,64,0.00,,---,0.00,VWS V14.00,2013-03-21 12:06:00,
2013-03-21 06:11:00,32.6,21.8,29.68,South,184,0.0,0.0,64,0.00,,---,0.00,VWS V14.00,2013-03-21 12:11:00,
2013-03-21 06:16:00,32.6,21.8,29.68,South,185,0.0,0.0,64,0.00,,---,0.00,VWS V14.00,2013-03-21 12:16:00,
2013-03-21 06:21:00,32.6,21.8,29.68,South,185,0.0,0.0,64,0.00,,---,0.00,VWS V14.00,2013-03-21 12:21:00,
2013-03-21 06:26:00,32.7,22.2,29.68,South,185,0.0,0.0,65,0.00,,---,0.00,VWS V14.00,2013-03-21 12:26:00,
2013-03-21 06:31:00,32.8,22.3,29.69,South,184,0.0,0.0,65,0.00,,---,0.00,VWS V14.00,2013-03-21 12:31:00,
2013-03-21 06:36:00,33.0,22.5,29.68,South,185,0.0,0.0,65,0.00,,---,0.00,VWS V14.00,2013-03-21 12:36:00,
2013-03-21 06:41:00,33.3,22.8,29.68,South,185,0.0,0.0,65,0.00,,---,0.00,VWS V14.00,2013-03-21 12:41:00,
2013-03-21 06:46:00,34.0,23.5,29.67,South,184,0.0,1.0,65,0.00,,---,0.00,VWS V14.00,2013-03-21 12:46:00,
2013-03-21 06:51:00,34.5,24.0,29.67,South,184,0.0,0.0,65,0.00,,---,0.00,VWS V14.00,2013-03-21 12:51:00,
2013-03-21 06:56:00,35.0,24.1,29.66,South,185,0.0,1.0,64,0.00,,---,0.00,VWS V14.00,2013-03-21 12:56:00,
2013-03-21 07:01:00,35.1,23.8,29.66,South,185,0.0,0.0,63,0.00,,---,0.00,VWS V14.00,2013-03-21 13:01:00,
2013-03-21 07:06:00,35.3,24.0,29.67,South,185,0.0,0.0,63,0.00,,---,0.00,VWS V14.00,2013-03-21 13:06:00,
2013-03-21 07:11:00,35.4,24.1,29.66,South,184,0.0,0.0,63,0.00,,---,0.00,VWS V14.00,2013-03-21 13:11:00,
2013-03-21 07:16:00,35.5,24.2,29.67,South,185,1.0,2.0,63,0.00,,---,0.00,VWS V14.00,2013-03-21 13:16:00,
2013-03-21 07:22:00,35.8,24.5,29.67,South,185,0.0,1.0,63,0.00,,---,0.00,VWS V14.00,2013-03-21 13:22:00,
2013-03-21 07:27:00,36.0,24.3,29.67,South,184,0.0,0.0,62,0.00,,---,0.00,VWS V14.00,2013-03-21 13:27:00,
2013-03-21 07:33:00,36.2,24.5,29.67,South,184,0.0,0.0,62,0.00,,---,0.00,VWS V14.00,2013-03-21 13:33:00,
2013-03-21 07:38:00,36.4,24.6,29.67,South,185,0.0,1.0,62,0.00,,---,0.00,VWS V14.00,2013-03-21 13:38:00,
2013-03-21 07:43:00,36.6,24.8,29.65,South,185,0.0,0.0,62,0.00,,---,0.00,VWS V14.00,2013-03-21 13:43:00,
2013-03-21 07:49:00,37.1,25.3,29.65,South,185,0.0,1.0,62,0.00,,---,0.00,VWS V14.00,2013-03-21 13:49:00,
2013-03-21 07:54:00,37.3,25.1,29.65,South,184,0.0,0.0,61,0.00,,---,0.00,VWS V14.00,2013-03-21 13:54:00,
2013-03-21 07:59:00,37.4,25.2,29.65,South,184,0.0,0.0,61,0.00,,---,0.00,VWS V14.00,2013-03-21 13:59:00,
2013-03-21 08:05:00,37.5,24.9,29.66,South,184,0.0,0.0,60,0.00,,---,0.00,VWS V14.00,2013-03-21 14:05:00,
2013-03-21 08:10:00,37.5,24.9,29.67,South,185,0.0,0.0,60,0.00,,---,0.00,VWS V14.00,2013-03-21 14:10:00,
2013-03-21 08:15:00,37.5,24.9,29.66,South,185,0.0,0.0,60,0.00,,---,0.00,VWS V14.00,2013-03-21 14:15:00,
2013-03-21 08:20:00,37.7,25.5,29.66,South,184,0.0,0.0,61,0.00,,---,0.00,VWS V14.00,2013-03-21 14:20:00,
2013-03-21 08:25:00,38.1,25.9,29.66,South,185,0.0,0.0,61,0.00,,---,0.00,VWS V14.00,2013-03-21 14:25:00,
2013-03-21 08:30:00,38.4,25.7,29.66,South,185,0.0,0.0,60,0.00,,---,0.00,VWS V14.00,2013-03-21 14:30:00,
2013-03-21 08:35:00,38.7,25.6,29.65,South,185,0.0,0.0,59,0.00,,---,0.00,VWS V14.00,2013-03-21 14:35:00,
2013-03-21 08:41:00,38.8,26.1,29.65,North,0,0.0,0.0,60,0.00,,---,0.00,VWS V14.00,2013-03-21 14:41:00,
2013-03-21 08:47:00,38.9,25.8,29.65,South,184,0.0,0.0,59,0.00,,---,0.00,VWS V14.00,2013-03-21 14:47:00,
2013-03-21 08:52:00,39.1,26.0,29.65,South,185,0.0,1.0,59,0.00,,---,0.00,VWS V14.00,2013-03-21 14:52:00,
2013-03-21 08:57:00,39.2,26.1,29.65,South,185,0.0,2.0,59,0.00,,---,0.00,VWS V14.00,2013-03-21 14:57:00,
2013-03-21 09:02:00,39.5,26.4,29.65,SSE,153,1.0,5.0,59,0.00,,---,0.00,VWS V14.00,2013-03-21 15:02:00,
2013-03-21 09:07:00,39.7,26.6,29.66,West,280,0.0,0.0,59,0.00,,---,0.00,VWS V14.00,2013-03-21 15:07:00,
2013-03-21 09:12:00,40.0,26.8,29.66,West,279,0.0,0.0,59,0.00,,---,0.00,VWS V14.00,2013-03-21 15:12:00,
2013-03-21 09:17:00,40.4,26.8,29.65,West,279,0.0,1.0,58,0.00,,---,0.00,VWS V14.00,2013-03-21 15:17:00,
2013-03-21 09:22:00,41.2,27.6,29.64,West,280,0.0,1.0,58,0.00,,---,0.00,VWS V14.00,2013-03-21 15:22:00,
2013-03-21 09:27:00,42.6,27.6,29.62,West,280,0.0,0.0,55,0.00,,---,0.00,VWS V14.00,2013-03-21 15:27:00,
2013-03-21 09:32:00,43.8,28.2,29.62,West,280,0.0,0.0,54,0.00,,---,0.00,VWS V14.00,2013-03-21 15:32:00,
2013-03-21 09:37:00,44.4,28.4,29.62,West,280,0.0,1.0,53,0.00,,---,0.00,VWS V14.00,2013-03-21 15:37:00,
2013-03-21 09:43:00,44.7,28.2,29.60,West,279,0.0,3.0,52,0.00,,---,0.00,VWS V14.00,2013-03-21 15:43:00,
2013-03-21 09:48:00,44.7,27.7,29.60,West,279,0.0,0.0,51,0.00,,---,0.00,VWS V14.00,2013-03-21 15:48:00,
2013-03-21 09:53:00,45.0,28.0,29.60,West,279,0.0,0.0,51,0.00,,---,0.00,VWS V14.00,2013-03-21 15:53:00,
2013-03-21 09:58:00,45.2,28.2,29.59,West,279,1.0,1.0,51,0.00,,---,0.00,VWS V14.00,2013-03-21 15:58:00,
2013-03-21 10:03:00,45.5,28.0,29.60,West,279,0.0,1.0,50,0.00,,---,0.00,VWS V14.00,2013-03-21 16:03:00,
2013-03-21 10:08:00,45.9,28.3,29.61,West,279,0.0,1.0,50,0.00,,---,0.00,VWS V14.00,2013-03-21 16:08:00,
2013-03-21 10:13:00,46.4,28.3,29.60,West,279,0.0,0.0,49,0.00,,---,0.00,VWS V14.00,2013-03-21 16:13:00,
2013-03-21 10:18:00,46.7,28.6,29.59,West,279,0.0,1.0,49,0.00,,---,0.00,VWS V14.00,2013-03-21 16:18:00,
2013-03-21 10:23:00,47.2,28.5,29.59,West,279,0.0,0.0,48,0.00,,---,0.00,VWS V14.00,2013-03-21 16:23:00,
2013-03-21 10:28:00,47.9,29.2,29.58,West,279,0.0,0.0,48,0.00,,---,0.00,VWS V14.00,2013-03-21 16:28:00,
2013-03-21 10:33:00,48.9,29.6,29.57,West,279,0.0,2.0,47,0.00,,---,0.00,VWS V14.00,2013-03-21 16:33:00,
2013-03-21 10:38:00,49.5,28.5,29.57,West,263,0.0,1.0,44,0.00,,---,0.00,VWS V14.00,2013-03-21 16:38:00,
2013-03-21 10:43:00,50.7,29.0,29.55,SE,128,0.0,6.0,43,0.00,,---,0.00,VWS V14.00,2013-03-21 16:43:00,
2013-03-21 10:49:00,51.8,28.3,29.55,SE,132,1.0,7.0,40,0.00,,---,0.00,VWS V14.00,2013-03-21 16:49:00,
2013-03-21 10:54:00,52.3,28.7,29.54,SE,128,2.0,4.0,40,0.00,,---,0.00,VWS V14.00,2013-03-21 16:54:00,
2013-03-21 11:00:00,53.0,28.7,29.53,SSE,156,3.0,5.0,39,0.00,,---,0.00,VWS V14.00,2013-03-21 17:00:00,
2013-03-21 11:05:00,53.2,28.9,29.53,ESE,121,0.0,4.0,39,0.00,,---,0.00,VWS V14.00,2013-03-21 17:05:00,
2013-03-21 11:10:00,54.1,29.7,29.52,ESE,122,2.0,3.0,39,0.00,,---,0.00,VWS V14.00,2013-03-21 17:10:00,
2013-03-21 11:15:00,54.6,29.5,29.51,South,173,2.0,3.0,38,0.00,,---,0.00,VWS V14.00,2013-03-21 17:15:00,
2013-03-21 11:21:00,54.7,29.6,29.51,SSE,148,2.0,4.0,38,0.00,,---,0.00,VWS V14.00,2013-03-21 17:21:00,
2013-03-21 11:27:00,55.1,29.3,29.50,SSE,165,0.0,3.0,37,0.00,,---,0.00,VWS V14.00,2013-03-21 17:27:00,
2013-03-21 11:33:00,55.6,29.8,29.49,SE,131,4.0,4.0,37,0.00,,---,0.00,VWS V14.00,2013-03-21 17:33:00,
2013-03-21 11:38:00,56.0,30.1,29.49,SE,125,6.0,7.0,37,0.00,,---,0.00,VWS V14.00,2013-03-21 17:38:00,
2013-03-21 11:44:00,56.4,29.8,29.50,SE,125,0.0,5.0,36,0.00,,---,0.00,VWS V14.00,2013-03-21 17:44:00,
2013-03-21 11:49:00,56.7,30.1,29.49,ESE,111,0.0,10.0,36,0.00,,---,0.00,VWS V14.00,2013-03-21 17:49:00,
2013-03-21 11:54:00,56.6,30.0,29.49,East,83,4.0,7.0,36,0.00,,---,0.00,VWS V14.00,2013-03-21 17:54:00,
2013-03-21 12:00:00,56.9,30.9,29.48,ESE,113,3.0,3.0,37,0.00,,---,0.00,VWS V14.00,2013-03-21 18:00:00,
2013-03-21 12:05:00,56.9,30.2,29.50,SE,128,0.0,0.0,36,0.00,,---,0.00,VWS V14.00,2013-03-21 18:05:00,
2013-03-21 12:10:00,56.9,28.8,29.49,SE,137,0.0,1.0,34,0.00,,---,0.00,VWS V14.00,2013-03-21 18:10:00,
2013-03-21 12:15:00,57.3,29.9,29.50,SE,143,0.0,3.0,35,0.00,,---,0.00,VWS V14.00,2013-03-21 18:15:00,
2013-03-21 12:20:00,57.3,29.2,29.49,East,99,0.0,4.0,34,0.00,,---,0.00,VWS V14.00,2013-03-21 18:20:00,
2013-03-21 12:26:00,58.0,29.1,29.48,SE,130,1.0,4.0,33,0.00,,---,0.00,VWS V14.00,2013-03-21 18:26:00,
2013-03-21 12:31:00,57.8,30.4,29.48,ENE,73,0.0,1.0,35,0.00,,---,0.00,VWS V14.00,2013-03-21 18:31:00,
2013-03-21 12:36:00,58.6,29.6,29.47,ESE,117,1.0,1.0,33,0.00,,---,0.00,VWS V14.00,2013-03-21 18:36:00,
2013-03-21 12:41:00,59.3,31.0,29.47,East,96,0.0,9.0,34,0.00,,---,0.00,VWS V14.00,2013-03-21 18:41:00,
2013-03-21 12:46:00,59.1,30.0,29.47,ESE,121,0.0,5.0,33,0.00,,---,0.00,VWS V14.00,2013-03-21 18:46:00,
2013-03-21 12:51:00,59.0,29.2,29.47,SSW,199,1.0,2.0,32,0.00,,---,0.00,VWS V14.00,2013-03-21 18:51:00,
2013-03-21 12:56:00,58.2,27.7,29.47,SSW,199,1.0,1.0,31,0.00,,---,0.00,VWS V14.00,2013-03-21 18:56:00,
2013-03-21 13:01:00,57.9,28.2,29.47,South,186,0.0,1.0,32,0.00,,---,0.00,VWS V14.00,2013-03-21 19:01:00,
2013-03-21 13:06:00,58.2,28.5,29.48,North,360,1.0,4.0,32,0.00,,---,0.00,VWS V14.00,2013-03-21 19:06:00,
2013-03-21 13:12:00,58.5,28.8,29.48,North,355,1.0,2.0,32,0.00,,---,0.00,VWS V14.00,2013-03-21 19:12:00,
2013-03-21 13:18:00,59.0,26.8,29.48,North,355,0.0,1.0,29,0.00,,---,0.00,VWS V14.00,2013-03-21 19:18:00,
2013-03-21 13:24:00,59.6,26.5,29.47,WSW,243,0.0,3.0,28,0.00,,---,0.00,VWS V14.00,2013-03-21 19:24:00,
2013-03-21 13:29:00,59.3,27.1,29.48,SW,235,3.0,3.0,29,0.00,,---,0.00,VWS V14.00,2013-03-21 19:29:00,
2013-03-21 13:34:00,59.7,26.6,29.46,SSW,206,3.0,5.0,28,0.00,,---,0.00,VWS V14.00,2013-03-21 19:34:00,
2013-03-21 13:39:00,59.6,25.6,29.46,SW,217,0.0,1.0,27,0.00,,---,0.00,VWS V14.00,2013-03-21 19:39:00,
2013-03-21 13:44:00,59.2,26.1,29.48,SW,223,0.0,1.0,28,0.00,,---,0.00,VWS V14.00,2013-03-21 19:44:00,
2013-03-21 13:49:00,58.8,25.8,29.49,NNE,21,8.0,9.0,28,0.00,,---,0.00,VWS V14.00,2013-03-21 19:49:00,
2013-03-21 13:54:00,57.8,27.4,29.49,ENE,69,6.0,16.0,31,0.00,,---,0.00,VWS V14.00,2013-03-21 19:54:00,
2013-03-21 13:59:00,56.0,28.0,29.51,NW,325,0.0,5.0,34,0.00,,---,0.00,VWS V14.00,2013-03-21 19:59:00,
2013-03-21 14:04:00,54.8,27.0,29.54,NW,323,0.0,9.0,34,0.00,,---,0.00,VWS V14.00,2013-03-21 20:04:00,
2013-03-21 14:09:00,54.1,27.1,29.55,SW,225,0.0,5.0,35,0.00,,---,0.00,VWS V14.00,2013-03-21 20:09:00,
2013-03-21 14:14:00,53.6,27.3,29.56,NNE,20,0.0,1.0,36,0.00,,---,0.00,VWS V14.00,2013-03-21 20:14:00,
2013-03-21 14:19:00,53.3,27.0,29.57,West,280,1.0,2.0,36,0.00,,---,0.00,VWS V14.00,2013-03-21 20:19:00,
2013-03-21 14:24:00,52.9,28.0,29.57,NNW,337,3.0,10.0,38,0.00,,---,0.00,VWS V14.00,2013-03-21 20:24:00,
2013-03-21 14:29:00,52.1,26.6,29.58,NNE,19,5.0,7.0,37,0.00,,---,0.00,VWS V14.00,2013-03-21 20:29:00,
2013-03-21 14:34:00,51.6,27.5,29.58,NNE,23,3.0,3.0,39,0.00,,---,0.00,VWS V14.00,2013-03-21 20:34:00,
2013-03-21 14:39:00,51.9,29.5,29.58,NW,315,10.0,14.0,42,0.00,,---,0.00,VWS V14.00,2013-03-21 20:39:00,
2013-03-21 14:45:00,51.4,31.3,29.59,NE,49,9.0,14.0,46,0.00,,---,0.00,VWS V14.00,2013-03-21 20:45:00,
2013-03-21 14:50:00,50.2,31.8,29.60,North,350,10.0,12.0,49,0.00,,---,0.00,VWS V14.00,2013-03-21 20:50:00,
2013-03-21 14:55:00,49.4,32.5,29.61,NNW,340,11.0,14.0,52,0.00,,---,0.00,VWS V14.00,2013-03-21 20:55:00,
2013-03-21 15:00:00,48.5,32.6,29.62,North,349,6.0,7.0,54,0.00,,---,0.00,VWS V14.00,2013-03-21 21:00:00,
2013-03-21 15:05:00,47.9,33.0,29.64,NE,38,6.0,12.0,56,0.00,,---,0.00,VWS V14.00,2013-03-21 21:05:00,
2013-03-21 15:10:00,47.8,33.3,29.64,North,10,5.0,11.0,57,0.00,,---,0.00,VWS V14.00,2013-03-21 21:10:00,
2013-03-21 15:15:00,47.7,33.2,29.64,NNE,23,6.0,7.0,57,0.00,,---,0.00,VWS V14.00,2013-03-21 21:15:00,
2013-03-21 15:20:00,47.8,33.3,29.65,NE,39,4.0,4.0,57,0.00,,---,0.00,VWS V14.00,2013-03-21 21:20:00,
2013-03-21 15:25:00,48.4,33.4,29.64,North,360,4.0,6.0,56,0.00,,---,0.00,VWS V14.00,2013-03-21 21:25:00,
2013-03-21 15:31:00,49.5,33.6,29.63,North,11,6.0,6.0,54,0.00,,---,0.00,VWS V14.00,2013-03-21 21:31:00,
2013-03-21 15:36:00,49.1,32.7,29.63,NNE,19,7.0,7.0,53,0.00,,---,0.00,VWS V14.00,2013-03-21 21:36:00,
2013-03-21 15:41:00,49.5,31.6,29.63,NW,319,4.0,6.0,50,0.00,,---,0.00,VWS V14.00,2013-03-21 21:41:00,
2013-03-21 15:47:00,49.6,31.2,29.63,North,5,1.0,1.0,49,0.00,,---,0.00,VWS V14.00,2013-03-21 21:47:00,
2013-03-21 15:52:00,49.5,32.6,29.62,NNE,28,3.0,7.0,52,0.00,,---,0.00,VWS V14.00,2013-03-21 21:52:00,
2013-03-21 15:57:00,49.1,33.2,29.63,NNE,26,2.0,6.0,54,0.00,,---,0.00,VWS V14.00,2013-03-21 21:57:00,
2013-03-21 16:02:00,48.6,33.6,29.63,NNW,346,6.0,8.0,56,0.00,,---,0.00,VWS V14.00,2013-03-21 22:02:00,
2013-03-21 16:08:00,50.1,34.6,29.63,NNE,30,2.0,6.0,55,0.00,,---,0.00,VWS V14.00,2013-03-21 22:08:00,
2013-03-21 16:14:00,50.8,34.8,29.62,North,350,1.0,5.0,54,0.00,,---,0.00,VWS V14.00,2013-03-21 22:14:00,
2013-03-21 16:19:00,51.2,34.7,29.63,NE,34,4.0,7.0,53,0.00,,---,0.00,VWS V14.00,2013-03-21 22:19:00,
2013-03-21 16:24:00,51.1,34.1,29.63,NE,45,0.0,3.0,52,0.00,,---,0.00,VWS V14.00,2013-03-21 22:24:00,
2013-03-21 16:29:00,50.5,33.5,29.63,NNW,342,1.0,9.0,52,0.00,,---,0.00,VWS V14.00,2013-03-21 22:29:00,
2013-03-21 16:34:00,50.4,34.9,29.64,NNE,26,3.0,4.0,55,0.00,,---,0.00,VWS V14.00,2013-03-21 22:34:00,
2013-03-21 16:39:00,50.5,34.0,29.63,ENE,57,3.0,10.0,53,0.00,,---,0.00,VWS V14.00,2013-03-21 22:39:00,
2013-03-21 16:44:00,50.3,34.3,29.63,NNE,29,3.0,6.0,54,0.00,,---,0.00,VWS V14.00,2013-03-21 22:44:00,
2013-03-21 16:49:00,50.2,34.2,29.63,NNE,26,5.0,6.0,54,0.00,,---,0.00,VWS V14.00,2013-03-21 22:49:00,
2013-03-21 16:54:00,49.7,34.7,29.63,NNE,14,5.0,9.0,56,0.00,,---,0.00,VWS V14.00,2013-03-21 22:54:00,
2013-03-21 16:59:00,49.9,32.5,29.63,NE,51,6.0,9.0,51,0.00,,---,0.00,VWS V14.00,2013-03-21 22:59:00,
2013-03-21 17:05:00,49.4,35.3,29.65,NE,46,4.0,12.0,58,0.00,,---,0.00,VWS V14.00,2013-03-21 23:05:00,
2013-03-21 17:10:00,49.4,34.8,29.65,NNE,13,2.0,10.0,57,0.00,,---,0.00,VWS V14.00,2013-03-21 23:10:00,
2013-03-21 17:15:00,49.4,34.8,29.66,ENE,61,1.0,6.0,57,0.00,,---,0.00,VWS V14.00,2013-03-21 23:15:00,
2013-03-21 17:20:00,49.7,33.8,29.66,North,349,3.0,9.0,54,0.00,,---,0.00,VWS V14.00,2013-03-21 23:20:00,
2013-03-21 17:25:00,49.7,24.5,29.66,NW,309,8.0,8.0,37,0.00,,---,0.00,VWS V14.00,2013-03-21 23:25:00,
2013-03-21 17:31:00,50.7,26.0,29.66,North,355,2.0,3.0,38,0.00,,---,0.00,VWS V14.00,2013-03-21 23:31:00,
2013-03-21 17:37:00,50.4,28.2,29.67,NNW,327,5.0,10.0,42,0.00,,---,0.00,VWS V14.00,2013-03-21 23:37:00,
2013-03-21 17:42:00,49.9,20.5,29.69,NNW,330,2.0,7.0,31,0.00,,---,0.00,VWS V14.00,2013-03-21 23:42:00,
2013-03-21 17:48:00,49.7,17.1,29.69,NNE,30,3.0,4.0,27,0.00,,---,0.00,VWS V14.00,2013-03-21 23:48:00,
2013-03-21 17:53:00,49.2,15.8,29.71,WNW,290,8.0,12.0,26,0.00,,---,0.00,VWS V14.00,2013-03-21 23:53:00,
2013-03-21 17:58:00,49.1,15.7,29.72,North,355,1.0,5.0,26,0.00,,---,0.00,VWS V14.00,2013-03-21 23:58:00,
2013-03-21 18:03:00,48.9,18.1,29.72,NW,326,9.0,10.0,29,0.00,,---,0.00,VWS V14.00,2013-03-22 00:03:00,
2013-03-21 18:09:00,48.6,24.8,29.70,North,360,4.0,11.0,39,0.00,,---,0.00,VWS V14.00,2013-03-22 00:09:00,
2013-03-21 18:14:00,47.8,16.3,29.73,North,355,2.0,12.0,28,0.00,,---,0.00,VWS V14.00,2013-03-22 00:14:00,
2013-03-21 18:20:00,47.3,15.0,29.74,NW,308,2.0,6.0,27,0.00,,---,0.00,VWS V14.00,2013-03-22 00:20:00,
2013-03-21 18:25:00,47.0,14.8,29.74,NNE,28,0.0,0.0,27,0.00,,---,0.00,VWS V14.00,2013-03-22 00:25:00,
2013-03-21 18:30:00,46.7,14.5,29.74,NNE,28,0.0,3.0,27,0.00,,---,0.00,VWS V14.00,2013-03-22 00:30:00,
2013-03-21 18:35:00,46.4,14.2,29.75,NNE,28,1.0,3.0,27,0.00,,---,0.00,VWS V14.00,2013-03-22 00:35:00,
2013-03-21 18:40:00,46.3,15.0,29.77,NNE,28,0.0,1.0,28,0.00,,---,0.00,VWS V14.00,2013-03-22 00:40:00,
2013-03-21 18:45:00,46.1,14.8,29.77,NNE,32,0.0,1.0,28,0.00,,---,0.00,VWS V14.00,2013-03-22 00:45:00,
2013-03-21 18:50:00,46.0,14.7,29.78,NW,326,0.0,2.0,28,0.00,,---,0.00,VWS V14.00,2013-03-22 00:50:00,
2013-03-21 18:55:00,45.8,13.7,29.78,NW,319,3.0,5.0,27,0.00,,---,0.00,VWS V14.00,2013-03-22 00:55:00,
2013-03-21 19:00:00,45.6,13.6,29.78,NNE,32,2.0,5.0,27,0.00,,---,0.00,VWS V14.00,2013-03-22 01:00:00,
2013-03-21 19:05:00,45.5,13.5,29.75,North,349,3.0,5.0,27,0.00,,---,0.00,VWS V14.00,2013-03-22 01:05:00,
2013-03-21 19:10:00,45.3,13.3,29.76,NNW,341,4.0,6.0,27,0.00,,---,0.00,VWS V14.00,2013-03-22 01:10:00,
2013-03-21 19:15:00,45.2,13.2,29.76,NNE,27,5.0,16.0,27,0.00,,---,0.00,VWS V14.00,2013-03-22 01:15:00,
2013-03-21 19:20:00,45.1,13.1,29.77,WNW,290,7.0,11.0,27,0.00,,---,0.00,VWS V14.00,2013-03-22 01:20:00,
2013-03-21 19:25:00,45.0,13.1,29.77,North,360,4.0,11.0,27,0.00,,---,0.00,VWS V14.00,2013-03-22 01:25:00,
2013-03-21 19:30:00,44.7,12.8,29.78,WNW,301,4.0,9.0,27,0.00,,---,0.00,VWS V14.00,2013-03-22 01:30:00,
2013-03-21 19:35:00,44.5,12.6,29.80,NNW,344,4.0,8.0,27,0.00,,---,0.00,VWS V14.00,2013-03-22 01:35:00,
2013-03-21 19:40:00,44.3,12.4,29.79,NNE,14,2.0,11.0,27,0.00,,---,0.00,VWS V14.00,2013-03-22 01:40:00,
2013-03-21 19:46:00,44.2,13.2,29.79,North,360,4.0,9.0,28,0.00,,---,0.00,VWS V14.00,2013-03-22 01:46:00,
2013-03-21 19:51:00,43.9,12.9,29.79,North,360,8.0,8.0,28,0.00,,---,0.00,VWS V14.00,2013-03-22 01:51:00,
2013-03-21 19:56:00,43.6,13.5,29.78,North,9,4.0,6.0,29,0.00,,---,0.00,VWS V14.00,2013-03-22 01:56:00,
2013-03-21 20:02:00,43.2,13.9,29.79,North,350,8.0,10.0,30,0.00,,---,0.00,VWS V14.00,2013-03-22 02:02:00,
2013-03-21 20:08:00,43.0,14.4,29.78,NNW,340,1.0,7.0,31,0.00,,---,0.00,VWS V14.00,2013-03-22 02:08:00,
2013-03-21 20:13:00,42.8,15.0,29.79,NNE,19,2.0,6.0,32,0.00,,---,0.00,VWS V14.00,2013-03-22 02:13:00,
2013-03-21 20:18:00,42.6,14.8,29.79,NNE,28,2.0,11.0,32,0.00,,---,0.00,VWS V14.00,2013-03-22 02:18:00,
2013-03-21 20:23:00,42.4,15.4,29.79,NE,55,0.0,9.0,33,0.00,,---,0.00,VWS V14.00,2013-03-22 02:23:00,
2013-03-21 20:28:00,42.2,15.2,29.80,NNW,342,8.0,8.0,33,0.00,,---,0.00,VWS V14.00,2013-03-22 02:28:00,
2013-03-21 20:33:00,42.0,15.0,29.80,NNW,340,2.0,11.0,33,0.00,,---,0.00,VWS V14.00,2013-03-22 02:33:00,
2013-03-21 20:39:00,42.0,15.0,29.80,North,355,0.0,11.0,33,0.00,,---,0.00,VWS V14.00,2013-03-22 02:39:00,
2013-03-21 20:44:00,41.9,14.9,29.81,NNW,332,10.0,16.0,33,0.00,,---,0.00,VWS V14.00,2013-03-22 02:44:00,
2013-03-21 20:50:00,41.7,14.7,29.81,NNE,23,1.0,6.0,33,0.00,,---,0.00,VWS V14.00,2013-03-22 02:50:00,
2013-03-21 20:55:00,41.6,14.6,29.82,NNW,342,10.0,17.0,33,0.00,,---,0.00,VWS V14.00,2013-03-22 02:55:00,
2013-03-21 21:00:00,41.4,15.1,29.83,NE,51,0.0,6.0,34,0.00,,---,0.00,VWS V14.00,2013-03-22 03:00:00,
2013-03-21 21:05:00,41.2,15.0,29.80,NE,49,1.0,1.0,34,0.00,,---,0.00,VWS V14.00,2013-03-22 03:05:00,
2013-03-21 21:10:00,41.1,14.9,29.80,NE,36,1.0,1.0,34,0.00,,---,0.00,VWS V14.00,2013-03-22 03:10:00,
2013-03-21 21:15:00,41.0,15.5,29.81,SW,221,0.0,2.0,35,0.00,,---,0.00,VWS V14.00,2013-03-22 03:15:00,
2013-03-21 21:20:00,40.8,15.3,29.81,NNE,29,1.0,4.0,35,0.00,,---,0.00,VWS V14.00,2013-03-22 03:20:00,
2013-03-21 21:25:00,40.8,15.3,29.81,North,355,1.0,2.0,35,0.00,,---,0.00,VWS V14.00,2013-03-22 03:25:00,
2013-03-21 21:31:00,40.9,14.7,29.80,NNE,23,1.0,4.0,34,0.00,,---,0.00,VWS V14.00,2013-03-22 03:31:00,
2013-03-21 21:36:00,41.0,15.5,29.81,North,360,6.0,6.0,35,0.00,,---,0.00,VWS V14.00,2013-03-22 03:36:00,
2013-03-21 21:41:00,40.9,15.4,29.81,NNE,14,2.0,4.0,35,0.00,,---,0.00,VWS V14.00,2013-03-22 03:41:00,
2013-03-21 21:47:00,40.7,15.2,29.81,North,9,3.0,7.0,35,0.00,,---,0.00,VWS V14.00,2013-03-22 03:47:00,
2013-03-21 21:53:00,40.6,15.1,29.81,North,355,0.0,4.0,35,0.00,,---,0.00,VWS V14.00,2013-03-22 03:53:00,
2013-03-21 21:59:00,40.6,15.1,29.82,NNW,330,3.0,10.0,35,0.00,,---,0.00,VWS V14.00,2013-03-22 03:59:00,
2013-03-21 22:01:00,40.6,15.1,29.82,North,360,0.0,7.0,35,0.00,,---,0.00,VWS V14.00,2013-03-22 04:01:00,
2013-03-21 22:03:00,40.5,15.0,29.82,NE,46,1.0,2.0,35,0.00,,---,0.00,VWS V14.00,2013-03-22 04:03:00,
2013-03-21 22:06:00,40.4,14.9,29.79,NNE,28,3.0,3.0,35,0.00,,---,0.00,VWS V14.00,2013-03-22 04:06:00,
2013-03-21 22:07:00,40.4,15.6,29.79,North,355,2.0,3.0,36,0.00,,---,0.00,VWS V14.00,2013-03-22 04:07:00,
2013-03-21 22:13:00,40.3,15.5,29.79,ENE,70,2.0,7.0,36,0.00,,---,0.00,VWS V14.00,2013-03-22 04:13:00,
2013-03-21 22:18:00,40.2,15.4,29.79,NNW,347,2.0,4.0,36,0.00,,---,0.00,VWS V14.00,2013-03-22 04:18:00,
2013-03-21 22:23:00,40.0,15.2,29.79,NNE,33,2.0,4.0,36,0.00,,---,0.00,VWS V14.00,2013-03-22 04:23:00,
2013-03-21 22:28:00,39.8,15.7,29.79,NNW,342,3.0,6.0,37,0.00,,---,0.00,VWS V14.00,2013-03-22 04:28:00,
2013-03-21 22:33:00,39.7,15.6,29.80,North,355,3.0,5.0,37,0.00,,---,0.00,VWS V14.00,2013-03-22 04:33:00,
2013-03-21 22:38:00,39.6,14.9,29.80,NNE,17,0.0,4.0,36,0.00,,---,0.00,VWS V14.00,2013-03-22 04:38:00,
2013-03-21 22:43:00,39.4,14.7,29.80,NNE,25,1.0,4.0,36,0.00,,---,0.00,VWS V14.00,2013-03-22 04:43:00,
2013-03-21 22:49:00,39.3,14.6,29.80,WNW,286,3.0,6.0,36,0.00,,---,0.00,VWS V14.00,2013-03-22 04:49:00,
2013-03-21 22:54:00,39.2,14.5,29.80,ESE,108,0.0,1.0,36,0.00,,---,0.00,VWS V14.00,2013-03-22 04:54:00,
2013-03-21 22:59:00,39.0,14.3,29.81,North,360,3.0,4.0,36,0.00,,---,0.00,VWS V14.00,2013-03-22 04:59:00,
2013-03-21 23:04:00,38.9,14.2,29.80,WNW,299,6.0,10.0,36,0.00,,---,0.00,VWS V14.00,2013-03-22 05:04:00,
2013-03-21 23:09:00,38.8,14.1,29.78,NE,38,0.0,3.0,36,0.00,,---,0.00,VWS V14.00,2013-03-22 05:09:00,
2013-03-21 23:14:00,38.6,14.6,29.78,SSE,161,2.0,5.0,37,0.00,,---,0.00,VWS V14.00,2013-03-22 05:14:00,
2013-03-21 23:19:00,38.5,14.5,29.78,NNW,342,11.0,11.0,37,0.00,,---,0.00,VWS V14.00,2013-03-22 05:19:00,
2013-03-21 23:25:00,38.4,14.4,29.78,NNW,338,0.0,3.0,37,0.00,,---,0.00,VWS V14.00,2013-03-22 05:25:00,
2013-03-21 23:32:00,38.3,14.3,29.80,NE,41,0.0,5.0,37,0.00,,---,0.00,VWS V14.00,2013-03-22 05:32:00,
2013-03-21 23:37:00,38.3,14.3,29.81,North,9,2.0,4.0,37,0.00,,---,0.00,VWS V14.00,2013-03-22 05:37:00,
2013-03-21 23:42:00,38.2,14.2,29.80,North,11,2.0,2.0,37,0.00,,---,0.00,VWS V14.00,2013-03-22 05:42:00,
2013-03-21 23:47:00,38.0,14.1,29.80,NNE,22,0.0,3.0,37,0.00,,---,0.00,VWS V14.00,2013-03-22 05:47:00,
2013-03-21 23:52:00,37.9,14.0,29.80,SE,132,0.0,1.0,37,0.00,,---,0.00,VWS V14.00,2013-03-22 05:52:00,
2013-03-21 23:57:00,37.8,13.9,29.81,SE,132,0.0,0.0,37,0.00,,---,0.00,VWS V14.00,2013-03-22 05:57:00,